Flag for Montenegro Weather past 2 weeks in Podgorica, Montenegro

Now
52 °F

Broken clouds.


Feels Like: 46 °F
Forecast: 47 / 60 °F
Wind: 20 mph from Northeast

Location: Podgorica Titograd


UV Index: 5 (Moderate)

Visibility: N/A


Pressure: 29.80 "Hg

Humidity: 47%

Dew point: 32 °F

Location of PodgoricaLocation

Historic Weather in Podgorica

°F

Podgorica temperature yesterday

Maximum temperature yesterday: 57 °F (at 7:00 AM)
Minimum temperature yesterday: 45 °F (at 9:30 PM)
Average temperature yesterday: 49 °F

Past Weeks' High & Low Weather Summary

 TemperatureHumidityPressure
High75 °F (Apr 8, 3:00 PM)100% (Apr 3, 5:00 AM)30.09 "Hg (Apr 3, 5:00 AM)
Low41 °F (Apr 12, 5:00 AM)21% (Apr 10, 3:30 PM)29.71 "Hg (Apr 4, 5:00 PM)
Average58 °F63%29.94 "Hg
* Reported Apr 1 7:00 PM — Apr 16 7:00 PM, Podgorica, Weather by CustomWeather, © 2014

Note: Actual official high and low records may vary slightly from our data, if they occured in-between our weather recording intervals... More about our weather records

Advertising

Historic Weather Conditions — Data for Previous 24 hours

 ConditionsComfort  
Time TempWeatherWind HumidityBarometerVisibility
7:00 PM
Apr 16
52 °FBroken clouds.20 mph47%29.80 "HgN/A
6:30 PM52 °FBroken clouds.16 mph50%29.80 "HgN/A
6:00 PM52 °FBroken clouds.18 mph47%29.80 "HgN/A
5:30 PM52 °FMore clouds than sun.25 mph47%29.80 "HgN/A
5:00 PM52 °FMore clouds than sun.25 mph50%29.77 "HgN/A
4:30 PM52 °FMore clouds than sun.24 mph50%29.77 "HgN/A
4:00 PM54 °FMore clouds than sun.22 mph44%29.77 "HgN/A
3:30 PM54 °FMore clouds than sun.21 mph47%29.77 "HgN/A
3:00 PM52 °FMore clouds than sun.22 mph47%29.77 "HgN/A
2:30 PM54 °FMore clouds than sun.21 mph44%29.80 "HgN/A
2:00 PM52 °FMore clouds than sun.21 mph47%29.80 "HgN/A
1:30 PM52 °FMore clouds than sun.18 mph47%29.80 "HgN/A
1:00 PM52 °FMore clouds than sun.21 mph47%29.80 "HgN/A
12:30 PM52 °FMore clouds than sun.20 mph47%29.80 "HgN/A
12:00 PM52 °FMore clouds than sun.17 mph44%29.80 "HgN/A
11:30 AM52 °FMore clouds than sun.17 mph44%29.80 "HgN/A
11:00 AM50 °FMore clouds than sun.17 mph47%29.80 "HgN/A
10:30 AM50 °FMore clouds than sun.17 mph47%29.80 "HgN/A
10:00 AM50 °FMore clouds than sun.22 mph50%29.80 "HgN/A
9:30 AM50 °FMore clouds than sun.21 mph47%29.80 "HgN/A
9:00 AM48 °FMore clouds than sun.14 mph54%29.83 "HgN/A
8:30 AM48 °FMore clouds than sun.15 mph54%29.83 "HgN/A
8:00 AM48 °FMore clouds than sun.14 mph54%29.83 "HgN/A
7:30 AM48 °FMore clouds than sun.15 mph54%29.83 "HgN/A
7:00 AM48 °FMostly cloudy.13 mph54%29.83 "HgN/A
6:30 AM48 °FMostly cloudy.12 mph54%29.80 "HgN/A
6:00 AM48 °FMostly cloudy.14 mph54%29.80 "HgN/A
5:30 AM48 °FMostly cloudy.15 mph58%29.80 "HgN/A
5:00 AM48 °FMostly cloudy.21 mph54%29.80 "HgN/A
4:30 AM48 °FMostly cloudy.21 mph54%29.80 "HgN/A
4:00 AM48 °FMostly cloudy.20 mph54%29.80 "HgN/A
3:30 AM48 °FMostly cloudy.18 mph58%29.80 "HgN/A
3:00 AM48 °FMostly cloudy.16 mph58%29.80 "HgN/A
1:00 AM48 °FLight rain. Mostly cloudy.10 mph71%29.83 "HgN/A
12:30 AM46 °FMostly cloudy.9 mph76%29.86 "HgN/A
12:00 AM46 °FLight rain. Mostly cloudy.9 mph76%29.86 "HgN/A
11:00 PM
Apr 15
46 °FLight rain. Mostly cloudy.10 mph82%29.86 "HgN/A
10:30 PM46 °FRain. Mostly cloudy.12 mph76%29.86 "HgN/A
10:00 PM45 °FLight rain. Mostly cloudy.6 mph93%29.89 "HgN/A
9:30 PM45 °FLight rain. Mostly cloudy.6 mph87%29.89 "HgN/A
9:00 PM46 °FLight rain. Mostly cloudy.9 mph82%29.89 "HgN/A
8:30 PM46 °FRain. Mostly cloudy.10 mph82%29.89 "Hg5 mi
8:00 PM46 °FRain. More clouds than sun.8 mph87%29.89 "Hg5 mi
7:30 PM46 °FRain. More clouds than sun.10 mph82%29.86 "Hg4 mi
7:00 PM46 °FRain. More clouds than sun.2 mph82%29.86 "HgN/A
Weather by CustomWeather, © 2014

See weather overview